Williamtown Air Force Base, Australia

11:32 PM AEST on August 28, 2016 (GMT +1000)
Williamtown Military

Weather History for YWLM - July, 2013

Change the Weather History Date:

Wednesday, July 31, 2013

  Actual Average Record
Temperature  
Mean Temperature 58 °F -  
Max Temperature 66 °F - - ()
Min Temperature 51 °F - - ()
Degree Days  
Heating Degree Days 6    
Growing Degree Days 8 (Base 50)    
Moisture  
Dew Point 50 °F    
Average Humidity 72    
Maximum Humidity 94    
Minimum Humidity 38    
Precipitation  
Precipitation 0.00 in - - ()
Sea Level Pressure  
Sea Level Pressure 30.16 in    
Wind  
Wind Speed 12 mph ()    
Max Wind Speed 22 mph    
Max Gust Speed 31 mph    
Visibility 6.7 miles    
Events Rain    
T = Trace of Precipitation, MM = Missing Value Source: Averaged Metar Reports

Daily Weather History Graph

Daily Weather History Graph

Search for Another Location

Airport or City:

Trip Planner

Search our weather history database for the weather conditions in past years. The results will help you decide how hot, cold, wet, or windy it might be!

Date:

Astronomy

Jul. 31, 2013 Rise Set
Actual Time 6:44 AM AEST 5:14 PM AEST
Civil Twilight 6:17 AM AEST 5:40 PM AEST
Nautical Twilight 5:48 AM AEST 6:10 PM AEST
Astronomical Twilight 5:19 AM AEST 6:39 PM AEST
Moon 1:05 AM AEST (7/31) 11:52 AM AEST (7/31)
Length of Visible Light 11h 22m
Length of Day
10h 30m
Last Quarter, 37% of the Moon is Illuminated
Jul 31
Last Quarter
Aug 7
New
Aug 14
First Quarter
Aug 21
Full
Aug 28
Last Quarter

Hourly Weather History & Observations

Time (AEST) Temp. Dew Point Humidity Pressure Visibility Wind Dir Wind Speed Gust Speed Precip Events Conditions
12:00 AM 54 °F 51 °F 85% 30.12 in - WNW 5.8 mph - -  
12:00 AM 53.6 °F 50.0 °F 88% 30.09 in 6.2 mi WNW 5.8 mph - N/A   Overcast
12:30 AM 53.6 °F 50.0 °F 88% 30.09 in 6.2 mi WNW 6.9 mph - N/A   Mostly Cloudy
1:00 AM 57 °F 52 °F 79% 30.12 in - SW 12.7 mph - -  
1:00 AM 57.2 °F 51.8 °F 82% 30.09 in 6.2 mi SW 12.7 mph - N/A   Mostly Cloudy
1:30 AM 57.2 °F 51.8 °F 82% 30.09 in 6.2 mi SW 15.0 mph - N/A   Overcast
2:00 AM 55.4 °F 51.8 °F 88% 30.12 in 6.2 mi SW 11.5 mph - N/A   Scattered Clouds
2:30 AM 55.4 °F 51.8 °F 88% 30.09 in 6.2 mi SW 11.5 mph - N/A   Mostly Cloudy
3:00 AM 55 °F 52 °F 86% 30.12 in - SW 12.7 mph - -  
3:00 AM 55.4 °F 51.8 °F 88% 30.09 in 6.2 mi SW 12.7 mph - N/A   Mostly Cloudy
3:30 AM 55.4 °F 53.6 °F 94% 30.12 in 6.2 mi SW 13.8 mph - N/A   Light Drizzle
4:00 AM 55.4 °F 53.6 °F 94% 30.12 in 6.2 mi SW 9.2 mph - N/A Rain Rain
4:21 AM 55.4 °F 53.6 °F 94% 30.12 in 3.1 mi SW 8.1 mph - N/A Rain Rain Showers
4:30 AM 55.4 °F 53.6 °F 94% 30.12 in - WSW 8.1 mph - N/A Rain Heavy Rain
4:42 AM 55.4 °F 53.6 °F 94% 30.12 in 4.3 mi SW 9.2 mph - N/A Rain Heavy Rain
4:44 AM 55.4 °F 53.6 °F 94% 30.12 in 3.7 mi SW 9.2 mph - N/A Rain Heavy Rain
5:00 AM 55.4 °F 53.6 °F 94% 30.12 in 5.0 mi WSW 8.1 mph - N/A Rain Rain
5:04 AM 55.4 °F 53.6 °F 94% 30.12 in 6.2 mi WSW 10.4 mph - N/A Rain Rain
5:26 AM 55.4 °F 53.6 °F 94% 30.12 in 3.7 mi West 10.4 mph - N/A Rain Heavy Rain
5:30 AM 55.4 °F 53.6 °F 94% 30.12 in 3.1 mi WNW 11.5 mph - N/A Rain Heavy Rain
5:47 AM 55.4 °F 53.6 °F 94% 30.12 in 6.2 mi West 13.8 mph - N/A Rain Rain
6:00 AM 55 °F 53 °F 92% 30.15 in 12 mi West 12.7 mph - - Rain Light Rain Showers
6:00 AM 55.4 °F 53.6 °F 94% 30.12 in 6.2 mi WSW 12.7 mph - N/A Rain Light Rain Showers
6:30 AM 55.4 °F 53.6 °F 94% 30.15 in 6.2 mi WSW 10.4 mph - N/A Rain Light Rain Showers
7:00 AM 55 °F 54 °F 94% 30.17 in - SW 9.2 mph - -  
7:00 AM 55.4 °F 53.6 °F 94% 30.15 in 6.2 mi SW 9.2 mph - N/A   Scattered Clouds
7:30 AM 57.2 °F 53.6 °F 88% 30.15 in 6.2 mi SW 15.0 mph - N/A   Scattered Clouds
8:00 AM 57.2 °F 53.6 °F 88% 30.18 in 6.2 mi SW 11.5 mph - N/A   Scattered Clouds
8:30 AM 59.0 °F 53.6 °F 82% 30.18 in 6.2 mi SSW 11.5 mph - N/A   Partly Cloudy
9:00 AM 61 °F 53 °F 67% 30.20 in 19 mi South 15.0 mph - -   Partly Cloudy
9:00 AM 60.8 °F 53.6 °F 77% 30.18 in 6.2 mi South 15.0 mph - N/A   Scattered Clouds
9:30 AM 62.6 °F 50.0 °F 63% 30.18 in 6.2 mi South 17.3 mph - N/A   Scattered Clouds
10:00 AM 64 °F 50 °F 50% 30.20 in - South 15.0 mph - -  
10:00 AM 64.4 °F 50.0 °F 59% 30.18 in 6.2 mi South 15.0 mph - N/A   Partly Cloudy
10:30 AM 64.4 °F 48.2 °F 56% 30.18 in 6.2 mi South 18.4 mph - N/A   Scattered Clouds
11:00 AM 64.4 °F 48.2 °F 56% 30.18 in 6.2 mi South 19.6 mph - N/A   Scattered Clouds
11:30 AM 62.6 °F 48.2 °F 59% 30.18 in 6.2 mi South 17.3 mph - N/A   Partly Cloudy
12:00 PM 64 °F 49 °F 47% 30.19 in 19 mi South 20.7 mph - -   Partly Cloudy
12:00 PM 64.4 °F 48.2 °F 56% 30.18 in 6.2 mi South 20.7 mph - N/A   Scattered Clouds
12:30 PM 66.2 °F 48.2 °F 52% 30.15 in 6.2 mi South 19.6 mph - N/A   Scattered Clouds
1:00 PM 65 °F 46 °F 38% 30.17 in - South 19.6 mph - -  
1:00 PM 64.4 °F 46.4 °F 52% 30.15 in 6.2 mi South 19.6 mph - N/A   Partly Cloudy
1:30 PM 66.2 °F 48.2 °F 52% 30.15 in 6.2 mi South 21.9 mph - N/A   Scattered Clouds
2:00 PM 64.4 °F 48.2 °F 56% 30.15 in 6.2 mi South 19.6 mph 31.1 mph N/A   Scattered Clouds
2:30 PM 62.6 °F 48.2 °F 59% 30.15 in 6.2 mi South 20.7 mph - N/A   Scattered Clouds
2:33 PM 62.6 °F 48.2 °F 59% 30.15 in 6.2 mi South 19.6 mph 31.1 mph N/A   Mostly Cloudy
3:00 PM 64 °F 48 °F 45% 30.17 in 19 mi South 18.4 mph - -   Partly Cloudy
3:00 PM 64.4 °F 48.2 °F 56% 30.15 in 6.2 mi South 18.4 mph - N/A   Partly Cloudy
3:30 PM 64.4 °F 46.4 °F 52% 30.15 in 6.2 mi South 19.6 mph - N/A   Partly Cloudy
4:00 PM 62 °F 47 °F 47% 30.17 in - South 19.6 mph - -  
4:00 PM 62.6 °F 46.4 °F 55% 30.15 in 6.2 mi South 19.6 mph - N/A   Scattered Clouds
4:30 PM 60.8 °F 48.2 °F 63% 30.15 in 6.2 mi South 16.1 mph - N/A   Scattered Clouds
5:00 PM 60.8 °F 48.2 °F 63% 30.15 in 6.2 mi South 17.3 mph - N/A   Scattered Clouds
5:30 PM 60.8 °F 48.2 °F 63% 30.18 in 6.2 mi South 16.1 mph - N/A   Mostly Cloudy
6:00 PM 60 °F 47 °F 51% 30.20 in - South 15.0 mph - -   Overcast
6:00 PM 60.8 °F 46.4 °F 59% 30.18 in 6.2 mi South 15.0 mph - N/A   Mostly Cloudy
6:30 PM 59.0 °F 46.4 °F 63% 30.18 in 6.2 mi South 15.0 mph - N/A   Mostly Cloudy
7:00 PM 60 °F 46 °F 50% 30.21 in - South 15.0 mph - -  
7:00 PM 60.8 °F 46.4 °F 59% 30.18 in 6.2 mi South 15.0 mph - N/A   Mostly Cloudy
7:30 PM 59.0 °F 46.4 °F 63% 30.18 in 6.2 mi South 15.0 mph - N/A   Scattered Clouds
8:00 PM 59.0 °F 46.4 °F 63% 30.21 in 6.2 mi South 13.8 mph - N/A   Partly Cloudy
8:30 PM 59.0 °F 46.4 °F 63% 30.21 in 6.2 mi South 13.8 mph - N/A   Partly Cloudy
9:00 PM 59 °F 46 °F 52% 30.22 in - South 13.8 mph - -  
9:00 PM 59.0 °F 46.4 °F 63% 30.21 in 6.2 mi South 13.8 mph - N/A   Scattered Clouds
9:30 PM 59.0 °F 46.4 °F 63% 30.21 in 6.2 mi South 11.5 mph - N/A   Unknown
10:00 PM 57 °F 46 °F 58% 30.21 in - South 10.4 mph - -  
10:00 PM 57.2 °F 46.4 °F 67% 30.18 in 6.2 mi South 10.4 mph - N/A   Scattered Clouds
10:30 PM 57.2 °F 46.4 °F 67% 30.18 in 6.2 mi SSW 8.1 mph - N/A   Unknown
11:00 PM 51.8 °F 48.2 °F 88% 30.18 in 6.2 mi WNW 6.9 mph - N/A   Overcast
11:30 PM 51.8 °F 48.2 °F 88% 30.18 in 6.2 mi NW 8.1 mph - N/A   Overcast